Location: Владивосток
(43.1151°N, 131.8856°E)
Time: 01:05:35
(UTC+10:00)

FO-29 - Pass Details

Date: 26 April 2024
Orbit: 801 x 1320 km, 98.6° (Epoch: 19 May)

Event Time Altitude Azimuth Distance (km) Brightness Sun altitude
Rises 01:28:41 0° 27° (NNE) 4,245 13.8 -33.2°
Reaches altitude 10° 01:32:19 10° 43° (NE) 3,318 12.8 -33.2°
Maximum altitude 01:37:45 20° 88° (E) 2,646 11.8 -33.0°
Enters shadow 01:39:50 18° 108° (ESE) 2,760 11.7 -33.0°
